Weather in Katunki

Russia / Nizhny Novgorod Oblast'     56°49′48″N   43°13′08″E
temp.,
°C
wind,
m/s
gust,
m/s
humid.,
%
clouds,
%
prec.,
mm/h
press.,
hPa
HPBL,
m
25 february, thu
thu2500:00−17s5994100 0.0 1030305
03:00−16s51095100 0.4 1027444
06:00−16s71195100 1.5 1023502
09:00−15s71195100 3.3 1019495
12:00−13s61094100 2.2 1015524
15:00−10sse5793100 2.9 1013393
18:00−10se4595100 0.7 1012135
21:00−12se339787 0.8 101228
26 february, fri
fri2600:00−10se2395100 0.1 101160
03:00−9se3495100 0.4 101294
06:00−8se4596100 0.3 1009123
09:00−5se5796100 0.9 1007147
12:00−1sse5998100 1.4 1003221
15:00+1ssw4899100 4.5 999172
18:00+2wsw61399100 3.9 996336
21:00+2w71494100 4.3 994488
27 february, sat
sat2700:00+1w61298100 0.3 993469
03:00+1w81497100 0.8 993602
06:00−5wnw91390100 0.6 993571
09:00−9nw81290100 0.8 996627
12:00−9nnw81188100 0.3 999675
15:00−10n71089100 0.3 1003736
18:00−9n339596 0.0 100529
21:00−9n229696 0.1 100727
28 february, sun
sun2800:00−12n239767 0.0 100823
03:00−13n349776 0.1 101046
06:00−15n349568 0.0 101186
09:00−15n469366 0.1 1013262
12:00−13nnw479184 0.0 1014362
15:00−10n488988 0.1 1015463
18:00−12nnw349590 0.0 101736
21:00−13n349695 0.1 102039
1 march, mon
mon100:00−15n339764 0.0 102126
03:00−16nnw339632 0.0 102324
06:00−16nw23971 0.0 102420
09:00−12w229645 0.0 102551
12:00−6w359176 0.0 1025295
15:00−3wsw588961 0.0 1023332
18:00−4wsw51191100 0.0 1023285
21:00−3wsw5119399 0.1 1021324